Вернуться в каталог

SENTINEL 1C

АктивенНаукаSSO
NORAD 62261·PAYLOAD·🇪🇺 EU

Запущен Dec 5, 2024 с Guiana Space Centre

Loading…

Ближайшие Пролёты (ближайшие 24 часа)

TLE

СвежийSource: Space-Track

Эпоха: Sep 14, 2026, 14:50 UTC

1 62261U 24235A   26257.61834089 -.00000158  00000-0 -23720-4 0  9998
2 62261  98.1822 263.6593 0001285  89.9964 270.1383 14.59198020 94459

Отслеживайте SENTINEL 1C в реальном времени с AllMySat

Download on the App Store